| time (UTC) | temp F | wind direction | speed knots | gust knots | rain 1hr in | rain 24hr in | rain mn in | humidity % | barometer mb |
| 20260502213018 | 67 | 7 | 6.1 | 15.6 | 0.00 | 0.00 | 0.00 | 32 | 1017.8 |
| 20260502211535 | 69 | 360 | 8.7 | 13.9 | 0.00 | 0.00 | 0.00 | 31 | 1017.8 |
| 20260502210013 | 68 | 9 | 7.0 | 12.2 | 0.00 | 0.00 | 0.00 | 32 | 1017.7 |
| 20260502204511 | 66 | 12 | 5.2 | 9.6 | 0.00 | 0.00 | 0.00 | 32 | 1017.8 |
| 20260502203016 | 65 | 18 | 4.3 | 10.4 | 0.00 | 0.00 | 0.00 | 33 | 1018.0 |
| 20260502201517 | 66 | 49 | 7.0 | 12.2 | 0.00 | 0.00 | 0.00 | 30 | 1017.9 |
| 20260502200026 | 68 | 5 | 6.1 | 13.9 | 0.00 | 0.00 | 0.00 | 30 | 1017.8 |
| 20260502194507 | 67 | 31 | 5.2 | 10.4 | 0.00 | 0.00 | 0.00 | 31 | 1017.8 |
| 20260502193012 | 68 | 30 | 4.3 | 10.4 | 0.00 | 0.00 | 0.00 | 30 | 1017.9 |
| 20260502191516 | 67 | 320 | 2.6 | 7.0 | 0.00 | 0.00 | 0.00 | 28 | 1018.0 |
| 20260502190023 | 66 | 90 | 4.3 | 10.4 | 0.00 | 0.00 | 0.00 | 30 | 1018.3 |
| 20260502183024 | 66 | 34 | 3.5 | 7.8 | 0.00 | 0.00 | 0.00 | 31 | 1018.7 |
| 20260502181518 | 65 | 27 | 5.2 | 9.6 | 0.00 | 0.00 | 0.00 | 31 | 1018.9 |
| 20260502163033 | 63 | 104 | 2.6 | 6.1 | 0.00 | 0.00 | 0.00 | 31 | 1019.2 |
| 20260502161526 | 62 | 285 | 3.5 | 7.0 | 0.00 | 0.00 | 0.00 | 32 | 1019.2 |
| 20260502151504 | 56 | 226 | 7.0 | 11.3 | 0.00 | 0.00 | 0.00 | 36 | 1019.1 |
| 20260502123013 | 37 | 270 | 4.3 | 7.0 | 0.00 | 0.00 | 0.00 | 60 | 1018.5 |
| 20260502121512 | 36 | 273 | 4.3 | 7.0 | 0.00 | 0.00 | 0.00 | 63 | 1018.5 |
| 20260502114507 | 36 | 272 | 4.3 | 7.8 | 0.00 | 0.00 | 0.00 | 63 | 1018.4 |
| 20260502113006 | 35 | 274 | 3.5 | 7.8 | 0.00 | 0.00 | 0.00 | 65 | 1018.4 |
| 20260502111511 | 34 | 250 | 2.6 | 5.2 | 0.00 | 0.00 | 0.00 | 66 | 1018.4 |
| 20260502104520 | 36 | 269 | 3.5 | 5.2 | 0.00 | 0.00 | 0.00 | 63 | 1018.3 |
| 20260502103014 | 37 | 263 | 4.3 | 7.8 | 0.00 | 0.00 | 0.00 | 60 | 1018.2 |
| 20260502101534 | 37 | 263 | 4.3 | 7.8 | 0.00 | 0.00 | 0.00 | 59 | 1018.2 |
| 20260502091514 | 37 | 286 | 5.2 | 7.8 | 0.00 | 0.00 | 0.00 | 59 | 1018.0 |
| 20260502071520 | 38 | 280 | 3.5 | 6.1 | 0.00 | 0.00 | 0.00 | 57 | 1018.3 |
| 20260502070022 | 39 | 278 | 2.6 | 6.1 | 0.00 | 0.00 | 0.00 | 57 | 1018.3 |
| 20260502064514 | 39 | 288 | 2.6 | 5.2 | 0.00 | 0.00 | 0.00 | 58 | 1018.4 |
| 20260502061522 | 41 | 265 | 3.5 | 6.1 | 0.00 | 0.00 | 0.00 | 54 | 1018.3 |
| 20260502060010 | 41 | 275 | 3.5 | 5.2 | 0.00 | 0.00 | 0.00 | 54 | 1018.2 |
| 20260502054510 | 41 | 259 | 2.6 | 4.3 | 0.00 | 0.00 | 0.00 | 53 | 1018.4 |
| 20260502053013 | 41 | 273 | 2.6 | 5.2 | 0.00 | 0.00 | 0.00 | 52 | 1018.5 |
| 20260502051517 | 41 | 286 | 2.6 | 5.2 | 0.00 | 0.00 | 0.00 | 53 | 1018.5 |
| 20260502050022 | 41 | 285 | 2.6 | 4.3 | 0.00 | 0.00 | 0.00 | 52 | 1018.5 |
| 20260502044510 | 43 | 284 | 2.6 | 4.3 | 0.00 | 0.00 | 0.00 | 48 | 1018.5 |
| 20260502043012 | 45 | 283 | 2.6 | 4.3 | 0.00 | 0.00 | 0.00 | 46 | 1018.5 |
| 20260502041513 | 45 | 287 | 2.6 | 4.3 | 0.00 | 0.00 | 0.00 | 48 | 1018.4 |
| 20260502040017 | 45 | 278 | 1.7 | 3.5 | 0.00 | 0.00 | 0.00 | 41 | 1018.4 |
| 20260502034527 | 46 | 275 | 1.7 | 5.2 | 0.00 | 0.00 | 0.00 | 38 | 1018.2 |
| 20260502033008 | 48 | 287 | 3.5 | 5.2 | 0.00 | 0.00 | 0.00 | 36 | 1018.2 |
| 20260502031512 | 50 | 298 | 2.6 | 4.3 | 0.00 | 0.00 | 0.00 | 33 | 1018.1 |
| 20260502030014 | 50 | 272 | 2.6 | 4.3 | 0.00 | 0.00 | 0.00 | 34 | 1017.8 |
| 20260502024519 | 51 | 288 | 2.6 | 4.3 | 0.00 | 0.00 | 0.00 | 35 | 1017.6 |
| 20260502023024 | 56 | 300 | 2.6 | 4.3 | 0.00 | 0.00 | 0.00 | 30 | 1017.3 |
| 20260502021525 | 62 | 262 | 2.6 | 5.2 | 0.00 | 0.00 | 0.00 | 23 | 1017.2 |
| 20260502020014 | 66 | 266 | 3.5 | 7.0 | 0.00 | 0.00 | 0.00 | 19 | 1017.2 |
| 20260502014519 | 68 | 253 | 3.5 | 6.1 | 0.00 | 0.00 | 0.00 | 18 | 1017.1 |
| 20260502013021 | 69 | 251 | 3.5 | 8.7 | 0.00 | 0.00 | 0.00 | 17 | 1017.2 |
| 20260502011525 | 70 | 250 | 4.3 | 9.6 | 0.00 | 0.00 | 0.00 | 16 | 1017.1 |
| 20260502010026 | 70 | 254 | 4.3 | 8.7 | 0.00 | 0.00 | 0.00 | 16 | 1017.2 |
| 20260502004514 | 71 | 261 | 4.3 | 7.0 | 0.00 | 0.00 | 0.00 | 17 | 1017.3 |
| 20260502003016 | 71 | 200 | 4.3 | 7.8 | 0.00 | 0.00 | 0.00 | 16 | 1017.4 |
| 20260502001521 | 71 | 267 | 4.3 | 8.7 | 0.00 | 0.00 | 0.00 | 17 | 1017.5 |
| 20260502000025 | 71 | 217 | 6.1 | 8.7 | 0.00 | 0.00 | 0.00 | 16 | 1017.5 |
| 20260501234525 | 71 | 212 | 4.3 | 7.8 | 0.00 | 0.00 | 0.00 | 16 | 1017.7 |
| 20260501233019 | 71 | 200 | 3.5 | 9.6 | 0.00 | 0.00 | 0.00 | 16 | 1017.6 |
| 20260501231520 | 72 | 204 | 1.7 | 9.6 | 0.00 | 0.00 | 0.00 | 17 | 1017.6 |
| 20260501230034 | 71 | 207 | 5.2 | 7.8 | 0.00 | 0.00 | 0.00 | 17 | 1017.6 |
| 20260501224509 | 70 | 285 | 3.5 | 7.8 | 0.00 | 0.00 | 0.00 | 17 | 1017.7 |
| 20260501223014 | 70 | 224 | 2.6 | 9.6 | 0.00 | 0.00 | 0.00 | 17 | 1017.6 |
| 20260501221516 | 69 | 226 | 1.7 | 9.6 | 0.00 | 0.00 | 0.00 | 18 | 1018.0 |
| 20260501220005 | 70 | 291 | 3.5 | 10.4 | 0.00 | 0.00 | 0.00 | 17 | 1018.2 |
| 20260501214508 | 70 | 188 | 2.6 | 7.8 | 0.00 | 0.00 | 0.00 | 17 | 1018.3 |